Anderson, SC

2:39 PM EST on February 26, 2017 (GMT -0500)
Anderson Regional

Weather History for KAND - September, 2012

Change the Weather History Date:

Sunday, September 9, 2012

  Actual Average Record
Temperature  
Mean Temperature 72 °F -  
Max Temperature 81 °F 84 °F 97 °F (1954)
Min Temperature 64 °F 65 °F 33 °F (1996)
Cooling Degree Days 7    
Growing Degree Days 22 (Base 50)    
Moisture  
Dew Point 57 °F    
Average Humidity 62    
Maximum Humidity 81    
Minimum Humidity 42    
Precipitation  
Precipitation 0.00 in - - ()
Sea Level Pressure  
Sea Level Pressure 29.92 in    
Wind  
Wind Speed 5 mph (NE)    
Max Wind Speed 12 mph    
Max Gust Speed 16 mph    
Visibility 10 miles    
Events      
Averages and records for this station are not official NWS values.
T = Trace of Precipitation, MM = Missing Value Source: NWS Daily Summary

Daily Weather History Graph

Daily Weather History Graph

Search for Another Location

Airport or City:

Trip Planner

Search our weather history database for the weather conditions in past years. The results will help you decide how hot, cold, wet, or windy it might be!

Date:

Astronomy

Sep. 09, 2012 Rise Set
Actual Time 7:10 AM EDT 7:45 PM EDT
Civil Twilight 6:44 AM EDT 8:10 PM EDT
Nautical Twilight 6:14 AM EDT 8:40 PM EDT
Astronomical Twilight 5:44 AM EDT 9:10 PM EDT
Moon 12:49 AM EDT (9/9) 3:18 PM EDT (9/9)
Length of Visible Light 13h 26m
Length of Day
12h 35m
Last Quarter, 39% of the Moon is Illuminated
Sep 9
Last Quarter
Sep 15
New
Sep 22
First Quarter
Sep 29
Full
Oct 8
Last Quarter

Hourly Weather History & Observations

Time (EDT) Temp. Heat Index Dew Point Humidity Pressure Visibility Wind Dir Wind Speed Gust Speed Precip Events Conditions
12:56 AM 69.1 °F - 62.1 °F 78% 29.83 in 10.0 mi NE 5.8 mph - N/A   Overcast
1:56 AM 69.1 °F - 62.1 °F 78% 29.83 in 10.0 mi Calm Calm - N/A   Overcast
2:56 AM 69.1 °F - 62.1 °F 78% 29.83 in 10.0 mi NE 4.6 mph - N/A   Overcast
3:56 AM 66.9 °F - 60.1 °F 79% 29.83 in 10.0 mi NE 5.8 mph - N/A   Mostly Cloudy
4:56 AM 66.0 °F - 57.9 °F 75% 29.84 in 10.0 mi NE 4.6 mph - N/A   Mostly Cloudy
5:56 AM 64.9 °F - 55.0 °F 70% 29.86 in 10.0 mi NNE 3.5 mph - N/A   Clear
6:56 AM 64.0 °F - 55.9 °F 75% 29.88 in 10.0 mi NE 5.8 mph - N/A   Mostly Cloudy
7:56 AM 64.0 °F - 55.0 °F 73% 29.91 in 10.0 mi NE 5.8 mph - N/A   Partly Cloudy
8:56 AM 68.0 °F - 54.0 °F 61% 29.92 in 10.0 mi NE 6.9 mph - N/A   Clear
9:56 AM 70.0 °F - 52.0 °F 53% 29.94 in 10.0 mi NE 9.2 mph 16.1 mph N/A   Mostly Cloudy
10:56 AM 73.0 °F - 51.1 °F 46% 29.96 in 10.0 mi NE 10.4 mph - N/A   Partly Cloudy
11:56 AM 75.0 °F - 51.1 °F 43% 29.96 in 10.0 mi NE 9.2 mph - N/A   Clear
12:56 PM 77.0 °F - 54.0 °F 45% 29.95 in 10.0 mi ENE 11.5 mph - N/A   Clear
1:56 PM 78.1 °F - 54.0 °F 43% 29.93 in 10.0 mi ENE 5.8 mph - N/A   Clear
2:56 PM 78.1 °F - 55.0 °F 45% 29.91 in 10.0 mi ENE 5.8 mph - N/A   Clear
3:56 PM 79.0 °F - 57.0 °F 47% 29.91 in 10.0 mi SW 4.6 mph - N/A   Partly Cloudy
4:56 PM 79.0 °F - 55.0 °F 44% 29.91 in 10.0 mi Calm Calm - N/A   Scattered Clouds
5:56 PM 80.1 °F 80.1 °F 55.0 °F 42% 29.91 in 10.0 mi NNE 3.5 mph - N/A   Clear
6:56 PM 78.1 °F - 57.0 °F 48% 29.93 in 10.0 mi East 3.5 mph - N/A   Clear
7:56 PM 73.9 °F - 59.0 °F 59% 29.94 in 10.0 mi Calm Calm - N/A   Clear
8:56 PM 69.1 °F - 62.1 °F 78% 29.97 in 10.0 mi Calm Calm - N/A   Overcast
9:56 PM 69.1 °F - 59.0 °F 70% 29.99 in 10.0 mi NE 4.6 mph - N/A   Clear
10:56 PM 68.0 °F - 57.9 °F 70% 30.01 in 10.0 mi Calm Calm - N/A   Partly Cloudy
11:56 PM 64.9 °F - 59.0 °F 81% 30.02 in 10.0 mi Calm Calm - N/A   Clear